User: anonymous   Login
Location: Brno
(49.2000°N, 16.6330°E)
Time: 12:35:19
(UTC+01:00)
Language:

Cosmos 1459 Rocket - Orbit

View from above orbital plane
View from above orbital plane
View from above satellite
View from above satellite

Ground track
Ground track

The orbit data is extracted from the following two-line orbital elements,

1 14059U 83042B   15056.20508623  .00000066  00000-0  49170-4 0  9996
2 14059 082.9750 327.5770 0043998 113.7999 049.6770 13.78496303599612
Epoch (UTC): 25 February 2015 04:55:19
Eccentricity: 0.0043998
inclination: 82.9750°
perigee height: 937 km
apogee height: 1001 km
right ascension of ascending node: 327.5770°
argument of perigee: 113.7999°
revolutions per day: 13.78496303
mean anomaly at epoch: 49.6770°
orbit number at epoch: 59961

The dashed part of the orbit path shows where the satellite is in the earth's shadow,  

DLR